TimeEDT,TemperatureF,Dew PointF,Humidity,Sea Level PressureIn,VisibilityMPH,Wind Direction,Wind SpeedMPH,Gust SpeedMPH,PrecipitationIn,Events,Conditions,WindDirDegrees,DateUTC
12:53 AM,54.0,48.9,83,29.87,10.0,Calm,Calm,-,N/A,,Clear,0,2012-09-09 04:53:00
1:53 AM,53.1,48.9,86,29.86,10.0,WSW,4.6,-,N/A,,Clear,250,2012-09-09 05:53:00
2:53 AM,53.1,48.9,86,29.86,10.0,WSW,3.5,-,N/A,,Clear,240,2012-09-09 06:53:00
3:53 AM,52.0,48.0,86,29.87,10.0,Calm,Calm,-,N/A,,Clear,0,2012-09-09 07:53:00
4:53 AM,50.0,48.0,93,29.89,10.0,NW,3.5,-,N/A,,Clear,310,2012-09-09 08:53:00
5:53 AM,51.1,46.9,86,29.91,10.0,Calm,Calm,-,N/A,,Clear,0,2012-09-09 09:53:00
6:53 AM,51.1,46.9,86,29.93,10.0,Calm,Calm,-,N/A,,Clear,0,2012-09-09 10:53:00
7:53 AM,51.1,48.0,89,29.95,10.0,NNW,3.5,-,N/A,,Partly Cloudy,330,2012-09-09 11:53:00
8:53 AM,55.9,48.9,77,29.97,10.0,North,3.5,-,N/A,,Clear,350,2012-09-09 12:53:00
9:53 AM,61.0,48.9,64,29.99,10.0,North,9.2,-,N/A,,Mostly Cloudy,360,2012-09-09 13:53:00
10:53 AM,64.0,46.0,52,30.00,10.0,NNW,12.7,-,N/A,,Clear,340,2012-09-09 14:53:00
11:53 AM,66.0,45.0,47,30.01,10.0,North,10.4,-,N/A,,Clear,10,2012-09-09 15:53:00
12:53 PM,66.9,45.0,45,30.02,10.0,Calm,Calm,-,N/A,,Clear,0,2012-09-09 16:53:00
1:53 PM,69.1,45.0,42,30.02,10.0,NNW,8.1,-,N/A,,Partly Cloudy,330,2012-09-09 17:53:00
2:53 PM,70.0,44.1,39,30.01,10.0,North,10.4,-,N/A,,Mostly Cloudy,360,2012-09-09 18:53:00
3:53 PM,71.1,43.0,36,30.02,10.0,North,10.4,-,N/A,,Mostly Cloudy,360,2012-09-09 19:53:00
4:53 PM,68.0,42.1,39,30.03,10.0,NNW,10.4,-,N/A,,Overcast,340,2012-09-09 20:53:00
5:53 PM,68.0,43.0,40,30.05,10.0,North,4.6,-,N/A,,Mostly Cloudy,10,2012-09-09 21:53:00
6:53 PM,68.0,44.1,42,30.06,10.0,North,9.2,-,N/A,,Scattered Clouds,360,2012-09-09 22:53:00
7:53 PM,63.0,45.0,52,30.06,10.0,NNW,6.9,-,N/A,,Scattered Clouds,340,2012-09-09 23:53:00
8:53 PM,60.1,45.0,57,30.09,10.0,NW,6.9,-,N/A,,Clear,310,2012-09-10 00:53:00
9:53 PM,59.0,45.0,60,30.10,10.0,NW,9.2,-,N/A,,Partly Cloudy,310,2012-09-10 01:53:00
10:53 PM,54.0,46.0,75,30.12,10.0,NE,5.8,-,N/A,,Clear,50,2012-09-10 02:53:00
11:53 PM,53.1,45.0,74,30.13,10.0,NNW,4.6,-,N/A,,Clear,330,2012-09-10 03:53:00